Time,TemperatureF,DewpointF,PressureIn,WindDirection,WindDirectionDegrees,WindSpeedMPH,WindSpeedGustMPH,Humidity,HourlyPrecipIn,Conditions,Clouds,dailyrainin,SoftwareType,DateUTC
2013-08-10 00:00:00,80.8,38.4,29.79,WSW,243,0.0,0.0,22,0.00,,---,0.00,VWS V14.01,2013-08-10 07:00:00,
2013-08-10 00:04:00,80.8,38.5,29.79,WSW,244,0.0,0.0,22,0.00,,---,0.00,VWS V14.01,2013-08-10 07:04:00,
2013-08-10 00:09:00,80.5,38.2,29.79,WSW,244,0.0,0.0,22,0.00,,---,0.00,VWS V14.01,2013-08-10 07:09:00,
2013-08-10 00:14:00,80.6,38.3,29.79,WSW,243,0.0,0.0,22,0.00,,---,0.00,VWS V14.01,2013-08-10 07:14:00,
2013-08-10 00:19:00,80.5,38.2,29.79,WSW,243,0.0,0.0,22,0.00,,---,0.00,VWS V14.01,2013-08-10 07:19:00,
2013-08-10 00:24:00,80.3,38.0,29.79,WSW,250,0.0,0.0,22,0.00,,---,0.00,VWS V14.01,2013-08-10 07:24:00,
2013-08-10 00:29:00,80.2,39.1,29.79,WSW,250,0.0,0.0,23,0.00,,---,0.00,VWS V14.01,2013-08-10 07:29:00,
2013-08-10 00:30:00,79.9,37.7,29.79,WSW,251,0.0,0.0,22,0.00,,---,0.00,VWS V14.01,2013-08-10 07:30:00,
2013-08-10 00:34:00,79.9,37.7,29.79,WSW,251,0.0,0.0,22,0.00,,---,0.00,VWS V14.01,2013-08-10 07:34:00,
2013-08-10 00:39:00,80.1,39.0,29.79,WSW,251,0.0,0.0,23,0.00,,---,0.00,VWS V14.01,2013-08-10 07:39:00,
2013-08-10 00:44:00,80.6,38.3,29.79,WSW,252,0.0,0.0,22,0.00,,---,0.00,VWS V14.01,2013-08-10 07:44:00,
2013-08-10 00:50:00,80.4,38.1,29.79,WSW,252,0.0,0.0,22,0.00,,---,0.00,VWS V14.01,2013-08-10 07:50:00,
2013-08-10 00:55:00,79.9,38.8,29.79,NNE,18,0.0,0.0,23,0.00,,---,0.00,VWS V14.01,2013-08-10 07:55:00,
2013-08-10 01:00:00,79.4,38.4,29.79,NNE,19,0.0,0.0,23,0.00,,---,0.00,VWS V14.01,2013-08-10 08:00:00,
2013-08-10 01:05:00,78.6,38.8,29.79,NNE,18,0.0,0.0,24,0.00,,---,0.00,VWS V14.01,2013-08-10 08:05:00,
2013-08-10 01:10:00,77.9,39.3,29.79,NNE,18,0.0,0.0,25,0.00,,---,0.00,VWS V14.01,2013-08-10 08:10:00,
2013-08-10 01:15:00,77.7,39.1,29.79,NNE,18,0.0,0.0,25,0.00,,---,0.00,VWS V14.01,2013-08-10 08:15:00,
2013-08-10 01:20:00,77.8,39.2,29.80,NNE,19,0.0,0.0,25,0.00,,---,0.00,VWS V14.01,2013-08-10 08:20:00,
2013-08-10 01:25:00,77.8,39.2,29.79,NNE,19,0.0,0.0,25,0.00,,---,0.00,VWS V14.01,2013-08-10 08:25:00,
2013-08-10 01:30:00,78.0,39.4,29.80,NNE,22,0.0,1.0,25,0.00,,---,0.00,VWS V14.01,2013-08-10 08:30:00,
2013-08-10 01:36:00,77.8,39.2,29.79,NNE,18,2.0,2.0,25,0.00,,---,0.00,VWS V14.01,2013-08-10 08:36:00,
2013-08-10 01:41:00,77.7,40.1,29.79,NNE,18,1.0,3.0,26,0.00,,---,0.00,VWS V14.01,2013-08-10 08:41:00,
2013-08-10 01:46:00,77.4,39.9,29.79,NNE,13,1.0,3.0,26,0.00,,---,0.00,VWS V14.01,2013-08-10 08:46:00,
2013-08-10 01:51:00,77.5,40.0,29.79,NNE,16,1.0,3.0,26,0.00,,---,0.00,VWS V14.01,2013-08-10 08:51:00,
2013-08-10 01:56:00,77.4,39.9,29.79,North,354,1.0,3.0,26,0.00,,---,0.00,VWS V14.01,2013-08-10 08:56:00,
2013-08-10 02:00:00,76.9,40.4,29.79,NNW,345,0.0,3.0,27,0.00,,---,0.00,VWS V14.01,2013-08-10 09:00:00,
2013-08-10 02:01:00,77.0,39.5,29.79,NNW,345,0.0,3.0,26,0.00,,---,0.00,VWS V14.01,2013-08-10 09:01:00,
2013-08-10 02:06:00,77.0,39.5,29.79,NNE,19,1.0,2.0,26,0.00,,---,0.00,VWS V14.01,2013-08-10 09:06:00,
2013-08-10 02:11:00,77.5,40.0,29.79,NNE,30,1.0,2.0,26,0.00,,---,0.00,VWS V14.01,2013-08-10 09:11:00,
2013-08-10 02:16:00,77.4,38.9,29.79,NNE,16,0.0,4.0,25,0.00,,---,0.00,VWS V14.01,2013-08-10 09:16:00,
2013-08-10 02:21:00,76.9,39.4,29.79,North,359,0.0,4.0,26,0.00,,---,0.00,VWS V14.01,2013-08-10 09:21:00,
2013-08-10 02:27:00,76.3,39.9,29.79,North,360,2.0,4.0,27,0.00,,---,0.00,VWS V14.01,2013-08-10 09:27:00,
2013-08-10 02:30:00,76.0,40.6,29.80,SSE,160,0.0,4.0,28,0.00,,---,0.00,VWS V14.01,2013-08-10 09:30:00,
2013-08-10 02:32:00,76.1,40.7,29.80,SSE,162,0.0,4.0,28,0.00,,---,0.00,VWS V14.01,2013-08-10 09:32:00,
2013-08-10 02:37:00,75.6,40.2,29.80,SSE,160,0.0,0.0,28,0.00,,---,0.00,VWS V14.01,2013-08-10 09:37:00,
2013-08-10 02:42:00,75.0,39.7,29.80,SSE,148,0.0,0.0,28,0.00,,---,0.00,VWS V14.01,2013-08-10 09:42:00,
2013-08-10 02:47:00,74.6,40.3,29.80,SSE,148,0.0,0.0,29,0.00,,---,0.00,VWS V14.01,2013-08-10 09:47:00,
2013-08-10 02:52:00,74.1,40.7,29.80,SSE,148,0.0,0.0,30,0.00,,---,0.00,VWS V14.01,2013-08-10 09:52:00,
2013-08-10 02:57:00,73.7,41.2,29.80,SSE,148,0.0,0.0,31,0.00,,---,0.00,VWS V14.01,2013-08-10 09:57:00,
2013-08-10 03:00:00,73.5,41.0,29.80,SSE,148,0.0,0.0,31,0.00,,---,0.00,VWS V14.01,2013-08-10 10:00:00,
2013-08-10 03:02:00,73.4,41.0,29.80,SSE,148,0.0,0.0,31,0.00,,---,0.00,VWS V14.01,2013-08-10 10:02:00,
2013-08-10 03:07:00,73.8,41.3,29.80,SSE,148,0.0,0.0,31,0.00,,---,0.00,VWS V14.01,2013-08-10 10:07:00,
2013-08-10 03:12:00,73.8,42.1,29.80,NNE,30,1.0,2.0,32,0.00,,---,0.00,VWS V14.01,2013-08-10 10:12:00,
2013-08-10 03:18:00,73.8,42.1,29.80,NNE,29,0.0,2.0,32,0.00,,---,0.00,VWS V14.01,2013-08-10 10:18:00,
2013-08-10 03:23:00,73.8,42.1,29.80,NNE,25,0.0,2.0,32,0.00,,---,0.00,VWS V14.01,2013-08-10 10:23:00,
2013-08-10 03:28:00,73.7,42.0,29.80,NNE,25,0.0,2.0,32,0.00,,---,0.00,VWS V14.01,2013-08-10 10:28:00,
2013-08-10 03:30:00,74.0,42.3,29.80,NNE,26,0.0,2.0,32,0.00,,---,0.00,VWS V14.01,2013-08-10 10:30:00,
2013-08-10 03:33:00,74.0,42.3,29.80,NNE,26,0.0,2.0,32,0.00,,---,0.00,VWS V14.01,2013-08-10 10:33:00,
2013-08-10 03:38:00,74.2,41.7,29.80,NNE,26,0.0,0.0,31,0.00,,---,0.00,VWS V14.01,2013-08-10 10:38:00,
2013-08-10 03:43:00,74.5,41.9,29.80,NNE,25,0.0,0.0,31,0.00,,---,0.00,VWS V14.01,2013-08-10 10:43:00,
2013-08-10 03:48:00,74.8,42.2,29.80,NNE,26,0.0,0.0,31,0.00,,---,0.00,VWS V14.01,2013-08-10 10:48:00,
2013-08-10 03:53:00,74.8,41.3,29.80,NNE,26,0.0,0.0,30,0.00,,---,0.00,VWS V14.01,2013-08-10 10:53:00,
2013-08-10 03:59:00,74.8,42.2,29.80,NNE,26,0.0,0.0,31,0.00,,---,0.00,VWS V14.01,2013-08-10 10:59:00,
2013-08-10 04:00:00,74.5,41.9,29.79,NNE,26,0.0,0.0,31,0.00,,---,0.00,VWS V14.01,2013-08-10 11:00:00,
2013-08-10 04:04:00,74.4,41.8,29.79,NNE,25,0.0,0.0,31,0.00,,---,0.00,VWS V14.01,2013-08-10 11:04:00,
2013-08-10 04:09:00,74.4,42.7,29.80,NNE,25,2.0,2.0,32,0.00,,---,0.00,VWS V14.01,2013-08-10 11:09:00,
2013-08-10 04:14:00,74.2,42.5,29.80,NNE,20,1.0,3.0,32,0.00,,---,0.00,VWS V14.01,2013-08-10 11:14:00,
2013-08-10 04:19:00,74.2,42.5,29.80,NNE,20,0.0,3.0,32,0.00,,---,0.00,VWS V14.01,2013-08-10 11:19:00,
2013-08-10 04:24:00,74.2,42.5,29.80,NNE,22,1.0,3.0,32,0.00,,---,0.00,VWS V14.01,2013-08-10 11:24:00,
2013-08-10 04:29:00,74.2,42.5,29.80,NNE,22,0.0,3.0,32,0.00,,---,0.00,VWS V14.01,2013-08-10 11:29:00,
2013-08-10 04:30:00,73.9,42.2,29.80,NNE,22,0.0,3.0,32,0.00,,---,0.00,VWS V14.01,2013-08-10 11:30:00,
2013-08-10 04:34:00,73.9,43.0,29.80,NNE,22,0.0,0.0,33,0.00,,---,0.00,VWS V14.01,2013-08-10 11:34:00,
2013-08-10 04:39:00,73.5,42.7,29.80,NNE,27,1.0,1.0,33,0.00,,---,0.00,VWS V14.01,2013-08-10 11:39:00,
2013-08-10 04:44:00,73.4,42.6,29.80,NNE,24,0.0,2.0,33,0.00,,---,0.00,VWS V14.01,2013-08-10 11:44:00,
2013-08-10 04:49:00,73.3,42.5,29.81,NNE,24,0.0,2.0,33,0.00,,---,0.00,VWS V14.01,2013-08-10 11:49:00,
2013-08-10 04:55:00,73.1,42.3,29.80,NNE,24,0.0,2.0,33,0.00,,---,0.00,VWS V14.01,2013-08-10 11:55:00,
2013-08-10 05:00:00,73.2,42.4,29.81,NNE,25,0.0,2.0,33,0.00,,---,0.00,VWS V14.01,2013-08-10 12:00:00,
2013-08-10 05:05:00,73.3,42.5,29.81,NNE,25,0.0,0.0,33,0.00,,---,0.00,VWS V14.01,2013-08-10 12:05:00,
2013-08-10 05:10:00,72.9,42.1,29.81,NNE,13,0.0,1.0,33,0.00,,---,0.00,VWS V14.01,2013-08-10 12:10:00,
2013-08-10 05:15:00,72.8,41.3,29.81,North,360,0.0,2.0,32,0.00,,---,0.00,VWS V14.01,2013-08-10 12:15:00,
2013-08-10 05:20:00,72.9,41.3,29.81,West,279,0.0,2.0,32,0.00,,---,0.00,VWS V14.01,2013-08-10 12:20:00,
2013-08-10 05:25:00,72.8,41.3,29.82,WNW,289,0.0,2.0,32,0.00,,---,0.00,VWS V14.01,2013-08-10 12:25:00,
2013-08-10 05:30:00,72.6,40.3,29.82,West,274,0.0,2.0,31,0.00,,---,0.00,VWS V14.01,2013-08-10 12:30:00,
2013-08-10 05:35:00,73.0,40.6,29.82,West,276,1.0,1.0,31,0.00,,---,0.00,VWS V14.01,2013-08-10 12:35:00,
2013-08-10 05:40:00,73.0,39.8,29.82,WNW,284,1.0,2.0,30,0.00,,---,0.00,VWS V14.01,2013-08-10 12:40:00,
2013-08-10 05:46:00,73.0,39.8,29.82,West,281,0.0,2.0,30,0.00,,---,0.00,VWS V14.01,2013-08-10 12:46:00,
2013-08-10 05:51:00,73.1,39.8,29.83,West,274,0.0,2.0,30,0.00,,---,0.00,VWS V14.01,2013-08-10 12:51:00,
2013-08-10 05:56:00,73.1,39.8,29.83,West,263,1.0,2.0,30,0.00,,---,0.00,VWS V14.01,2013-08-10 12:56:00,
2013-08-10 06:00:00,72.9,40.5,29.83,NE,41,0.0,2.0,31,0.00,,---,0.00,VWS V14.01,2013-08-10 13:00:00,
2013-08-10 06:01:00,72.9,39.7,29.83,WNW,283,0.0,2.0,30,0.00,,---,0.00,VWS V14.01,2013-08-10 13:01:00,
2013-08-10 06:06:00,72.8,41.3,29.83,NE,41,2.0,2.0,32,0.00,,---,0.00,VWS V14.01,2013-08-10 13:06:00,
2013-08-10 06:11:00,72.3,42.4,29.83,NE,46,2.0,3.0,34,0.00,,---,0.00,VWS V14.01,2013-08-10 13:11:00,
2013-08-10 06:16:00,72.2,42.3,29.84,NNE,30,1.0,3.0,34,0.00,,---,0.00,VWS V14.01,2013-08-10 13:16:00,
2013-08-10 06:21:00,72.3,43.1,29.84,NNE,30,0.0,3.0,35,0.00,,---,0.00,VWS V14.01,2013-08-10 13:21:00,
2013-08-10 06:26:00,72.4,43.2,29.84,NNE,24,3.0,4.0,35,0.00,,---,0.00,VWS V14.01,2013-08-10 13:26:00,
2013-08-10 06:30:00,73.0,43.0,29.84,NNE,16,3.0,4.0,34,0.00,,---,0.00,VWS V14.01,2013-08-10 13:30:00,
2013-08-10 06:32:00,72.9,43.7,29.84,NNE,22,2.0,4.0,35,0.00,,---,0.00,VWS V14.01,2013-08-10 13:32:00,
2013-08-10 06:37:00,73.1,43.1,29.84,North,8,1.0,3.0,34,0.00,,---,0.00,VWS V14.01,2013-08-10 13:37:00,
2013-08-10 06:42:00,73.4,44.1,29.85,North,5,1.0,3.0,35,0.00,,---,0.00,VWS V14.01,2013-08-10 13:42:00,
2013-08-10 06:47:00,74.0,43.1,29.85,NNE,18,2.0,3.0,33,0.00,,---,0.00,VWS V14.01,2013-08-10 13:47:00,
2013-08-10 06:52:00,74.9,43.1,29.85,NW,313,0.0,3.0,32,0.00,,---,0.00,VWS V14.01,2013-08-10 13:52:00,
2013-08-10 06:57:00,75.8,43.0,29.85,NW,314,0.0,3.0,31,0.00,,---,0.00,VWS V14.01,2013-08-10 13:57:00,
2013-08-10 07:00:00,76.7,43.0,29.85,North,9,1.0,3.0,30,0.00,,---,0.00,VWS V14.01,2013-08-10 14:00:00,
2013-08-10 07:02:00,76.7,43.0,29.85,North,349,1.0,3.0,30,0.00,,---,0.00,VWS V14.01,2013-08-10 14:02:00,
2013-08-10 07:07:00,77.0,43.2,29.85,NNE,18,0.0,3.0,30,0.00,,---,0.00,VWS V14.01,2013-08-10 14:07:00,
2013-08-10 07:12:00,78.0,44.1,29.85,NNE,18,0.0,3.0,30,0.00,,---,0.00,VWS V14.01,2013-08-10 14:12:00,
2013-08-10 07:17:00,79.1,44.2,29.85,NNE,18,0.0,3.0,29,0.00,,---,0.00,VWS V14.01,2013-08-10 14:17:00,
2013-08-10 07:22:00,79.4,43.5,29.85,NNE,12,1.0,3.0,28,0.00,,---,0.00,VWS V14.01,2013-08-10 14:22:00,
2013-08-10 07:27:00,79.5,43.6,29.85,NNE,13,0.0,3.0,28,0.00,,---,0.00,VWS V14.01,2013-08-10 14:27:00,
2013-08-10 07:30:00,80.7,45.5,29.85,NNE,13,0.0,3.0,29,0.00,,---,0.00,VWS V14.01,2013-08-10 14:30:00,
2013-08-10 07:32:00,80.3,45.2,29.85,NNE,13,0.0,3.0,29,0.00,,---,0.00,VWS V14.01,2013-08-10 14:32:00,
2013-08-10 07:37:00,81.6,44.4,29.85,NNE,13,0.0,0.0,27,0.00,,---,0.00,VWS V14.01,2013-08-10 14:37:00,
2013-08-10 07:42:00,82.0,45.7,29.85,NNE,30,0.0,1.0,28,0.00,,---,0.00,VWS V14.01,2013-08-10 14:42:00,
2013-08-10 07:47:00,82.5,46.1,29.85,NNE,30,0.0,1.0,28,0.00,,---,0.00,VWS V14.01,2013-08-10 14:47:00,
2013-08-10 07:52:00,83.2,44.8,29.85,NNE,30,0.0,1.0,26,0.00,,---,0.00,VWS V14.01,2013-08-10 14:52:00,
2013-08-10 07:57:00,83.8,43.2,29.85,North,11,0.0,2.0,24,0.00,,---,0.00,VWS V14.01,2013-08-10 14:57:00,
2013-08-10 08:00:00,84.7,39.2,29.85,ENE,75,0.0,3.0,20,0.00,,---,0.00,VWS V14.01,2013-08-10 15:00:00,
2013-08-10 08:02:00,84.6,39.2,29.85,ENE,75,1.0,3.0,20,0.00,,---,0.00,VWS V14.01,2013-08-10 15:02:00,
2013-08-10 08:08:00,85.3,39.7,29.85,NE,47,1.0,3.0,20,0.00,,---,0.00,VWS V14.01,2013-08-10 15:08:00,
2013-08-10 08:13:00,85.7,38.7,29.86,ENE,70,0.0,3.0,19,0.00,,---,0.00,VWS V14.01,2013-08-10 15:13:00,
2013-08-10 08:18:00,86.4,40.6,29.85,NE,39,0.0,3.0,20,0.00,,---,0.00,VWS V14.01,2013-08-10 15:18:00,
2013-08-10 08:23:00,86.8,38.3,29.86,North,8,1.0,4.0,18,0.00,,---,0.00,VWS V14.01,2013-08-10 15:23:00,
2013-08-10 08:28:00,87.0,38.4,29.85,NNE,32,1.0,4.0,18,0.00,,---,0.00,VWS V14.01,2013-08-10 15:28:00,
2013-08-10 08:30:00,87.4,40.1,29.85,ENE,74,0.0,4.0,19,0.00,,---,0.00,VWS V14.01,2013-08-10 15:30:00,
2013-08-10 08:33:00,87.3,41.4,29.85,ENE,75,0.0,4.0,20,0.00,,---,0.00,VWS V14.01,2013-08-10 15:33:00,
2013-08-10 08:38:00,88.1,40.7,29.85,NE,43,0.0,2.0,19,0.00,,---,0.00,VWS V14.01,2013-08-10 15:38:00,
2013-08-10 08:43:00,88.7,39.8,29.85,ENE,62,0.0,3.0,18,0.00,,---,0.00,VWS V14.01,2013-08-10 15:43:00,
2013-08-10 08:48:00,89.2,38.7,29.85,NE,36,1.0,3.0,17,0.00,,---,0.00,VWS V14.01,2013-08-10 15:48:00,
2013-08-10 08:54:00,89.6,37.5,29.85,ESE,122,0.0,3.0,16,0.00,,---,0.00,VWS V14.01,2013-08-10 15:54:00,
2013-08-10 08:59:00,90.3,38.1,29.85,ESE,117,0.0,3.0,16,0.00,,---,0.00,VWS V14.01,2013-08-10 15:59:00,
2013-08-10 09:00:00,90.8,38.5,29.84,NE,56,0.0,3.0,16,0.00,,---,0.00,VWS V14.01,2013-08-10 16:00:00,
2013-08-10 09:04:00,90.8,38.5,29.84,NE,56,0.0,0.0,16,0.00,,---,0.00,VWS V14.01,2013-08-10 16:04:00,
2013-08-10 09:09:00,91.8,39.3,29.85,NW,318,0.0,1.0,16,0.00,,---,0.00,VWS V14.01,2013-08-10 16:09:00,
2013-08-10 09:14:00,91.5,40.6,29.85,South,179,2.0,3.0,17,0.00,,---,0.00,VWS V14.01,2013-08-10 16:14:00,
2013-08-10 09:19:00,92.0,39.4,29.84,West,274,0.0,3.0,16,0.00,,---,0.00,VWS V14.01,2013-08-10 16:19:00,
2013-08-10 09:24:00,92.0,39.4,29.84,WSW,245,1.0,3.0,16,0.00,,---,0.00,VWS V14.01,2013-08-10 16:24:00,
2013-08-10 09:29:00,91.7,39.2,29.84,West,264,2.0,3.0,16,0.00,,---,0.00,VWS V14.01,2013-08-10 16:29:00,
2013-08-10 09:30:00,91.9,37.7,29.85,SSW,204,0.0,3.0,15,0.00,,---,0.00,VWS V14.01,2013-08-10 16:30:00,
2013-08-10 09:34:00,92.0,37.8,29.85,SW,229,2.0,3.0,15,0.00,,---,0.00,VWS V14.01,2013-08-10 16:34:00,
2013-08-10 09:39:00,91.6,39.1,29.85,South,169,0.0,4.0,16,0.00,,---,0.00,VWS V14.01,2013-08-10 16:39:00,
2013-08-10 09:44:00,91.9,36.0,29.85,SW,225,0.0,5.0,14,0.00,,---,0.00,VWS V14.01,2013-08-10 16:44:00,
2013-08-10 09:49:00,92.4,38.1,29.85,SW,233,0.0,5.0,15,0.00,,---,0.00,VWS V14.01,2013-08-10 16:49:00,
2013-08-10 09:54:00,92.6,36.5,29.85,WSW,245,0.0,5.0,14,0.00,,---,0.00,VWS V14.01,2013-08-10 16:54:00,
2013-08-10 10:00:00,93.2,37.0,29.85,South,169,4.0,5.0,14,0.00,,---,0.00,VWS V14.01,2013-08-10 17:00:00,
2013-08-10 10:05:00,94.0,37.6,29.85,WSW,239,0.0,5.0,14,0.00,,---,0.00,VWS V14.01,2013-08-10 17:05:00,
2013-08-10 10:10:00,93.7,35.5,29.85,SW,233,1.0,7.0,13,0.00,,---,0.00,VWS V14.01,2013-08-10 17:10:00,
2013-08-10 10:15:00,93.4,35.3,29.85,SW,221,4.0,7.0,13,0.00,,---,0.00,VWS V14.01,2013-08-10 17:15:00,
2013-08-10 10:20:00,93.9,35.7,29.85,SSW,203,5.0,7.0,13,0.00,,---,0.00,VWS V14.01,2013-08-10 17:20:00,
2013-08-10 10:25:00,94.0,33.7,29.85,SSE,152,2.0,7.0,12,0.00,,---,0.00,VWS V14.01,2013-08-10 17:25:00,
2013-08-10 10:30:00,94.4,36.0,29.84,SW,226,2.0,7.0,13,0.00,,---,0.00,VWS V14.01,2013-08-10 17:30:00,
2013-08-10 10:35:00,94.8,36.3,29.84,South,173,4.0,4.0,13,0.00,,---,0.00,VWS V14.01,2013-08-10 17:35:00,
2013-08-10 10:40:00,95.2,34.7,29.84,ESE,105,3.0,7.0,12,0.00,,---,0.00,VWS V14.01,2013-08-10 17:40:00,
2013-08-10 10:45:00,95.0,36.5,29.84,SSE,166,0.0,7.0,13,0.00,,---,0.00,VWS V14.01,2013-08-10 17:45:00,
2013-08-10 10:50:00,95.6,37.0,29.84,SW,226,7.0,9.0,13,0.00,,---,0.00,VWS V14.01,2013-08-10 17:50:00,
2013-08-10 10:56:00,94.7,34.3,29.84,SSE,158,3.0,9.0,12,0.00,,---,0.00,VWS V14.01,2013-08-10 17:56:00,
2013-08-10 11:00:00,94.2,35.9,29.84,SW,222,4.0,9.0,13,0.00,,---,0.00,VWS V14.01,2013-08-10 18:00:00,
2013-08-10 11:01:00,94.4,34.0,29.84,East,89,3.0,9.0,12,0.00,,---,0.00,VWS V14.01,2013-08-10 18:01:00,
2013-08-10 11:06:00,94.2,35.9,29.83,SSW,197,5.0,8.0,13,0.00,,---,0.00,VWS V14.01,2013-08-10 18:06:00,
2013-08-10 11:11:00,94.1,35.8,29.83,West,260,3.0,8.0,13,0.00,,---,0.00,VWS V14.01,2013-08-10 18:11:00,
2013-08-10 11:16:00,94.5,36.1,29.83,SSW,198,3.0,8.0,13,0.00,,---,0.00,VWS V14.01,2013-08-10 18:16:00,
2013-08-10 11:21:00,94.2,33.9,29.83,SW,232,6.0,13.0,12,0.00,,---,0.00,VWS V14.01,2013-08-10 18:21:00,
2013-08-10 11:26:00,93.6,35.4,29.83,WSW,248,4.0,13.0,13,0.00,,---,0.00,VWS V14.01,2013-08-10 18:26:00,
2013-08-10 11:30:00,94.5,34.1,29.83,SSE,165,2.0,13.0,12,0.00,,---,0.00,VWS V14.01,2013-08-10 18:30:00,
2013-08-10 11:31:00,94.1,33.8,29.83,SSW,200,5.0,13.0,12,0.00,,---,0.00,VWS V14.01,2013-08-10 18:31:00,
2013-08-10 11:37:00,95.1,36.6,29.83,SW,217,4.0,5.0,13,0.00,,---,0.00,VWS V14.01,2013-08-10 18:37:00,
2013-08-10 11:42:00,94.9,36.4,29.83,West,259,2.0,11.0,13,0.00,,---,0.00,VWS V14.01,2013-08-10 18:42:00,
2013-08-10 11:47:00,95.1,34.6,29.83,SSW,200,5.0,11.0,12,0.00,,---,0.00,VWS V14.01,2013-08-10 18:47:00,
2013-08-10 11:52:00,95.5,36.9,29.82,SW,229,2.0,11.0,13,0.00,,---,0.00,VWS V14.01,2013-08-10 18:52:00,
2013-08-10 11:57:00,96.1,35.3,29.82,WSW,249,4.0,11.0,12,0.00,,---,0.00,VWS V14.01,2013-08-10 18:57:00,
2013-08-10 12:00:00,96.2,35.4,29.82,SSW,200,5.0,11.0,12,0.00,,---,0.00,VWS V14.01,2013-08-10 19:00:00,
2013-08-10 12:02:00,96.1,35.3,29.82,SSW,205,5.0,11.0,12,0.00,,---,0.00,VWS V14.01,2013-08-10 19:02:00,
2013-08-10 12:07:00,96.8,33.7,29.82,SW,228,9.0,12.0,11,0.00,,---,0.00,VWS V14.01,2013-08-10 19:07:00,
2013-08-10 12:12:00,96.3,33.3,29.82,WNW,298,5.0,12.0,11,0.00,,---,0.00,VWS V14.01,2013-08-10 19:12:00,
2013-08-10 12:17:00,96.4,35.6,29.82,WSW,248,10.0,15.0,12,0.00,,---,0.00,VWS V14.01,2013-08-10 19:17:00,
2013-08-10 12:22:00,96.2,35.4,29.82,WSW,257,6.0,15.0,12,0.00,,---,0.00,VWS V14.01,2013-08-10 19:22:00,
2013-08-10 12:27:00,96.4,33.4,29.81,West,273,4.0,15.0,11,0.00,,---,0.00,VWS V14.01,2013-08-10 19:27:00,
2013-08-10 12:30:00,96.8,33.7,29.81,West,262,2.0,15.0,11,0.00,,---,0.00,VWS V14.01,2013-08-10 19:30:00,
2013-08-10 12:32:00,96.6,33.5,29.81,NW,321,4.0,15.0,11,0.00,,---,0.00,VWS V14.01,2013-08-10 19:32:00,
2013-08-10 12:38:00,97.5,36.4,29.81,WSW,238,3.0,6.0,12,0.00,,---,0.00,VWS V14.01,2013-08-10 19:38:00,
2013-08-10 12:43:00,98.2,34.8,29.81,SSW,201,5.0,8.0,11,0.00,,---,0.00,VWS V14.01,2013-08-10 19:43:00,
2013-08-10 12:48:00,97.8,36.7,29.80,WSW,254,3.0,10.0,12,0.00,,---,0.00,VWS V14.01,2013-08-10 19:48:00,
2013-08-10 12:53:00,98.4,34.9,29.80,SW,224,1.0,10.0,11,0.00,,---,0.00,VWS V14.01,2013-08-10 19:53:00,
2013-08-10 12:58:00,98.2,37.0,29.80,SE,135,2.0,10.0,12,0.00,,---,0.00,VWS V14.01,2013-08-10 19:58:00,
2013-08-10 13:00:00,98.5,35.0,29.80,WSW,242,4.0,10.0,11,0.00,,---,0.00,VWS V14.01,2013-08-10 20:00:00,
2013-08-10 13:03:00,98.5,35.0,29.80,South,186,2.0,10.0,11,0.00,,---,0.00,VWS V14.01,2013-08-10 20:03:00,
2013-08-10 13:08:00,98.5,39.2,29.79,South,183,0.0,8.0,13,0.00,,---,0.00,VWS V14.01,2013-08-10 20:08:00,
2013-08-10 13:13:00,98.2,34.8,29.79,ESE,103,3.0,8.0,11,0.00,,---,0.00,VWS V14.01,2013-08-10 20:13:00,
2013-08-10 13:18:00,97.7,36.6,29.79,WNW,290,8.0,9.0,12,0.00,,---,0.00,VWS V14.01,2013-08-10 20:18:00,
2013-08-10 13:24:00,97.5,36.4,29.78,West,263,1.0,11.0,12,0.00,,---,0.00,VWS V14.01,2013-08-10 20:24:00,
2013-08-10 13:29:00,98.0,36.8,29.78,WSW,246,1.0,11.0,12,0.00,,---,0.00,VWS V14.01,2013-08-10 20:29:00,
2013-08-10 13:30:00,98.6,37.3,29.78,SSW,210,7.0,11.0,12,0.00,,---,0.00,VWS V14.01,2013-08-10 20:30:00,
2013-08-10 13:34:00,98.6,37.3,29.78,SSW,197,2.0,9.0,12,0.00,,---,0.00,VWS V14.01,2013-08-10 20:34:00,
2013-08-10 13:39:00,99.1,37.7,29.78,South,170,9.0,11.0,12,0.00,,---,0.00,VWS V14.01,2013-08-10 20:39:00,
2013-08-10 13:44:00,99.2,35.5,29.78,ENE,74,2.0,11.0,11,0.00,,---,0.00,VWS V14.01,2013-08-10 20:44:00,
2013-08-10 13:49:00,99.4,37.9,29.78,West,266,3.0,11.0,12,0.00,,---,0.00,VWS V14.01,2013-08-10 20:49:00,
2013-08-10 13:54:00,98.7,37.3,29.78,WSW,238,3.0,11.0,12,0.00,,---,0.00,VWS V14.01,2013-08-10 20:54:00,
2013-08-10 13:59:00,99.7,38.1,29.78,SW,214,5.0,11.0,12,0.00,,---,0.00,VWS V14.01,2013-08-10 20:59:00,
2013-08-10 14:00:00,99.4,37.9,29.77,WSW,239,10.0,11.0,12,0.00,,---,0.00,VWS V14.01,2013-08-10 21:00:00,
2013-08-10 14:04:00,99.4,37.9,29.77,SE,136,0.0,8.0,12,0.00,,---,0.00,VWS V14.01,2013-08-10 21:04:00,
2013-08-10 14:10:00,98.9,37.5,29.77,WSW,250,3.0,9.0,12,0.00,,---,0.00,VWS V14.01,2013-08-10 21:10:00,
2013-08-10 14:15:00,98.4,39.2,29.77,WSW,238,8.0,9.0,13,0.00,,---,0.00,VWS V14.01,2013-08-10 21:15:00,
2013-08-10 14:20:00,97.5,38.5,29.77,SW,232,4.0,9.0,13,0.00,,---,0.00,VWS V14.01,2013-08-10 21:20:00,
2013-08-10 14:25:00,96.7,37.8,29.76,WSW,250,5.0,9.0,13,0.00,,---,0.00,VWS V14.01,2013-08-10 21:25:00,
2013-08-10 14:30:00,96.2,39.3,29.76,WSW,248,3.0,9.0,14,0.00,,---,0.00,VWS V14.01,2013-08-10 21:30:00,
2013-08-10 14:31:00,96.2,39.3,29.76,WSW,249,4.0,9.0,14,0.00,,---,0.00,VWS V14.01,2013-08-10 21:31:00,
2013-08-10 14:36:00,96.5,39.6,29.76,West,280,4.0,6.0,14,0.00,,---,0.00,VWS V14.01,2013-08-10 21:36:00,
2013-08-10 14:41:00,96.3,39.4,29.76,SSW,203,4.0,13.0,14,0.00,,---,0.00,VWS V14.01,2013-08-10 21:41:00,
2013-08-10 14:46:00,96.1,39.2,29.75,South,169,3.0,13.0,14,0.00,,---,0.00,VWS V14.01,2013-08-10 21:46:00,
2013-08-10 14:51:00,96.5,39.6,29.75,WSW,256,0.0,13.0,14,0.00,,---,0.00,VWS V14.01,2013-08-10 21:51:00,
2013-08-10 14:56:00,97.7,40.5,29.75,West,259,7.0,13.0,14,0.00,,---,0.00,VWS V14.01,2013-08-10 21:56:00,
2013-08-10 15:00:00,98.1,38.9,29.75,SW,224,5.0,13.0,13,0.00,,---,0.00,VWS V14.01,2013-08-10 22:00:00,
2013-08-10 15:01:00,97.6,40.4,29.75,WSW,253,2.0,13.0,14,0.00,,---,0.00,VWS V14.01,2013-08-10 22:01:00,
2013-08-10 15:06:00,98.2,39.0,29.74,West,260,2.0,6.0,13,0.00,,---,0.00,VWS V14.01,2013-08-10 22:06:00,
2013-08-10 15:11:00,98.9,39.5,29.74,WSW,252,3.0,6.0,13,0.00,,---,0.00,VWS V14.01,2013-08-10 22:11:00,
2013-08-10 15:17:00,99.2,39.8,29.74,WSW,250,0.0,12.0,13,0.00,,---,0.00,VWS V14.01,2013-08-10 22:17:00,
2013-08-10 15:22:00,99.5,40.0,29.74,SE,128,4.0,12.0,13,0.00,,---,0.00,VWS V14.01,2013-08-10 22:22:00,
2013-08-10 15:27:00,99.5,40.0,29.74,SSE,162,6.0,12.0,13,0.00,,---,0.00,VWS V14.01,2013-08-10 22:27:00,
2013-08-10 15:30:00,99.4,39.9,29.73,SSW,212,4.0,13.0,13,0.00,,---,0.00,VWS V14.01,2013-08-10 22:30:00,
2013-08-10 15:32:00,99.3,39.8,29.73,WSW,249,10.0,13.0,13,0.00,,---,0.00,VWS V14.01,2013-08-10 22:32:00,
2013-08-10 15:37:00,99.7,40.2,29.73,SW,217,6.0,11.0,13,0.00,,---,0.00,VWS V14.01,2013-08-10 22:37:00,
2013-08-10 15:42:00,99.6,40.1,29.73,West,276,5.0,12.0,13,0.00,,---,0.00,VWS V14.01,2013-08-10 22:42:00,
2013-08-10 15:47:00,99.7,40.2,29.73,WSW,257,6.0,12.0,13,0.00,,---,0.00,VWS V14.01,2013-08-10 22:47:00,
2013-08-10 15:52:00,99.7,40.2,29.73,WSW,240,7.0,12.0,13,0.00,,---,0.00,VWS V14.01,2013-08-10 22:52:00,
2013-08-10 15:57:00,99.3,37.8,29.73,WSW,253,4.0,12.0,12,0.00,,---,0.00,VWS V14.01,2013-08-10 22:57:00,
2013-08-10 16:00:00,99.9,38.3,29.72,SW,236,3.0,12.0,12,0.00,,---,0.00,VWS V14.01,2013-08-10 23:00:00,
2013-08-10 16:02:00,99.9,38.3,29.72,West,266,7.0,12.0,12,0.00,,---,0.00,VWS V14.01,2013-08-10 23:02:00,
2013-08-10 16:07:00,100.1,38.4,29.72,NNW,335,3.0,6.0,12,0.00,,---,0.00,VWS V14.01,2013-08-10 23:07:00,
2013-08-10 16:13:00,100.1,38.4,29.72,West,267,5.0,10.0,12,0.00,,---,0.00,VWS V14.01,2013-08-10 23:13:00,
2013-08-10 16:18:00,99.6,38.0,29.72,WNW,287,5.0,11.0,12,0.00,,---,0.00,VWS V14.01,2013-08-10 23:18:00,
2013-08-10 16:23:00,99.7,38.1,29.72,WSW,256,6.0,11.0,12,0.00,,---,0.00,VWS V14.01,2013-08-10 23:23:00,
2013-08-10 16:28:00,98.9,39.5,29.72,WSW,246,7.0,11.0,13,0.00,,---,0.00,VWS V14.01,2013-08-10 23:28:00,
2013-08-10 16:30:00,98.5,39.2,29.72,WSW,255,9.0,11.0,13,0.00,,---,0.00,VWS V14.01,2013-08-10 23:30:00,
2013-08-10 16:33:00,98.5,39.2,29.72,WSW,254,3.0,11.0,13,0.00,,---,0.00,VWS V14.01,2013-08-10 23:33:00,
2013-08-10 16:38:00,97.9,38.8,29.71,West,264,7.0,9.0,13,0.00,,---,0.00,VWS V14.01,2013-08-10 23:38:00,
2013-08-10 16:43:00,97.6,38.5,29.72,WSW,243,8.0,9.0,13,0.00,,---,0.00,VWS V14.01,2013-08-10 23:43:00,
2013-08-10 16:48:00,97.7,38.6,29.72,SW,221,3.0,11.0,13,0.00,,---,0.00,VWS V14.01,2013-08-10 23:48:00,
2013-08-10 16:53:00,97.7,38.6,29.72,SW,229,6.0,11.0,13,0.00,,---,0.00,VWS V14.01,2013-08-10 23:53:00,
2013-08-10 16:58:00,97.8,38.7,29.72,WSW,242,5.0,12.0,13,0.00,,---,0.00,VWS V14.01,2013-08-10 23:58:00,
2013-08-10 17:00:00,98.2,39.0,29.71,SW,217,1.0,12.0,13,0.00,,---,0.00,VWS V15.00,2013-08-11 00:00:00,
2013-08-10 17:03:00,98.2,39.0,29.72,SW,217,1.0,12.0,13,0.00,,---,0.00,VWS V14.01,2013-08-11 00:03:00,
2013-08-10 17:08:00,98.4,39.2,29.71,WNW,284,1.0,6.0,13,0.00,,---,0.00,VWS V14.01,2013-08-11 00:08:00,
2013-08-10 17:13:00,98.9,39.5,29.71,West,262,1.0,12.0,13,0.00,,---,0.00,VWS V14.01,2013-08-11 00:13:00,
2013-08-10 17:18:00,98.5,39.2,29.71,SW,231,8.0,12.0,13,0.00,,---,0.00,VWS V14.01,2013-08-11 00:18:00,
2013-08-10 17:23:00,97.9,38.8,29.71,SW,218,3.0,12.0,13,0.00,,---,0.00,VWS V14.01,2013-08-11 00:23:00,
2013-08-10 17:29:00,97.8,38.7,29.71,West,273,5.0,12.0,13,0.00,,---,0.00,VWS V14.01,2013-08-11 00:29:00,
2013-08-10 17:30:00,97.7,40.5,29.71,SW,232,4.0,12.0,14,0.00,,---,0.00,VWS V14.01,2013-08-11 00:30:00,
2013-08-10 17:34:00,97.6,40.4,29.71,West,259,3.0,6.0,14,0.00,,---,0.00,VWS V14.01,2013-08-11 00:34:00,
2013-08-10 17:39:00,97.3,40.2,29.71,West,260,7.0,11.0,14,0.00,,---,0.00,VWS V14.01,2013-08-11 00:39:00,
2013-08-10 17:44:00,96.9,39.9,29.71,WSW,253,2.0,11.0,14,0.00,,---,0.00,VWS V14.01,2013-08-11 00:44:00,
2013-08-10 17:49:00,97.3,40.2,29.71,SW,221,4.0,11.0,14,0.00,,---,0.00,VWS V14.01,2013-08-11 00:49:00,
2013-08-10 17:54:00,97.3,40.2,29.70,WNW,286,9.0,14.0,14,0.00,,---,0.00,VWS V14.01,2013-08-11 00:54:00,
2013-08-10 17:59:00,97.2,41.9,29.71,South,180,1.0,14.0,15,0.00,,---,0.00,VWS V14.01,2013-08-11 00:59:00,
2013-08-10 18:00:00,97.4,40.3,29.71,WSW,243,2.0,14.0,14,0.00,,---,0.00,VWS V14.01,2013-08-11 01:00:00,
2013-08-10 18:04:00,97.4,42.1,29.71,SW,224,4.0,4.0,15,0.00,,---,0.00,VWS V14.01,2013-08-11 01:04:00,
2013-08-10 18:09:00,97.1,41.8,29.71,WSW,243,2.0,8.0,15,0.00,,---,0.00,VWS V14.01,2013-08-11 01:09:00,
2013-08-10 18:14:00,96.8,41.6,29.71,WSW,243,1.0,8.0,15,0.00,,---,0.00,VWS V14.01,2013-08-11 01:14:00,
2013-08-10 18:19:00,96.6,41.4,29.71,SW,236,5.0,9.0,15,0.00,,---,0.00,VWS V14.01,2013-08-11 01:19:00,
2013-08-10 18:25:00,96.3,41.2,29.71,WSW,243,3.0,9.0,15,0.00,,---,0.00,VWS V14.01,2013-08-11 01:25:00,
2013-08-10 18:30:00,96.2,39.3,29.71,West,277,7.0,10.0,14,0.00,,---,0.00,VWS V14.01,2013-08-11 01:30:00,
2013-08-10 18:35:00,95.8,40.8,29.71,SW,232,3.0,9.0,15,0.00,,---,0.00,VWS V14.01,2013-08-11 01:35:00,
2013-08-10 18:40:00,95.5,40.5,29.71,WSW,248,5.0,9.0,15,0.00,,---,0.00,VWS V14.01,2013-08-11 01:40:00,
2013-08-10 18:45:00,95.1,40.2,29.71,WSW,246,3.0,9.0,15,0.00,,---,0.00,VWS V14.01,2013-08-11 01:45:00,
2013-08-10 18:50:00,94.7,39.9,29.72,West,264,4.0,9.0,15,0.00,,---,0.00,VWS V14.01,2013-08-11 01:50:00,
2013-08-10 18:55:00,94.5,39.8,29.72,WSW,252,4.0,9.0,15,0.00,,---,0.00,VWS V14.01,2013-08-11 01:55:00,
2013-08-10 19:00:00,93.8,40.9,29.72,West,265,3.0,9.0,16,0.00,,---,0.00,VWS V14.01,2013-08-11 02:00:00,
2013-08-10 19:06:00,93.3,40.5,29.72,West,260,2.0,6.0,16,0.00,,---,0.00,VWS V14.01,2013-08-11 02:06:00,
2013-08-10 19:11:00,92.9,40.2,29.72,WNW,300,1.0,7.0,16,0.00,,---,0.00,VWS V14.01,2013-08-11 02:11:00,
2013-08-10 19:16:00,92.7,40.0,29.72,WSW,252,2.0,7.0,16,0.00,,---,0.00,VWS V14.01,2013-08-11 02:16:00,
2013-08-10 19:21:00,92.3,39.7,29.72,WSW,255,1.0,7.0,16,0.00,,---,0.00,VWS V14.01,2013-08-11 02:21:00,
2013-08-10 19:26:00,91.7,40.8,29.72,West,267,2.0,7.0,17,0.00,,---,0.00,VWS V14.01,2013-08-11 02:26:00,
2013-08-10 19:30:00,90.9,40.1,29.73,WSW,245,2.0,7.0,17,0.00,,---,0.00,VWS V14.01,2013-08-11 02:30:00,
2013-08-10 19:31:00,91.0,40.2,29.72,WSW,255,5.0,7.0,17,0.00,,---,0.00,VWS V14.01,2013-08-11 02:31:00,
2013-08-10 19:36:00,90.7,39.9,29.73,WSW,247,1.0,4.0,17,0.00,,---,0.00,VWS V14.01,2013-08-11 02:36:00,
2013-08-10 19:41:00,90.3,41.1,29.73,WSW,246,1.0,4.0,18,0.00,,---,0.00,VWS V14.01,2013-08-11 02:41:00,
2013-08-10 19:46:00,89.9,40.8,29.73,WSW,242,1.0,4.0,18,0.00,,---,0.00,VWS V14.01,2013-08-11 02:46:00,
2013-08-10 19:52:00,89.5,40.5,29.73,WSW,252,1.0,4.0,18,0.00,,---,0.00,VWS V14.01,2013-08-11 02:52:00,
2013-08-10 19:57:00,89.2,40.2,29.74,WSW,239,1.0,4.0,18,0.00,,---,0.00,VWS V14.01,2013-08-11 02:57:00,
2013-08-10 20:00:00,88.8,39.9,29.74,WSW,243,1.0,4.0,18,0.00,,---,0.00,VWS V14.01,2013-08-11 03:00:00,
2013-08-10 20:02:00,88.9,40.0,29.74,WSW,243,1.0,4.0,18,0.00,,---,0.00,VWS V14.01,2013-08-11 03:02:00,
2013-08-10 20:07:00,88.7,39.8,29.74,West,263,2.0,3.0,18,0.00,,---,0.00,VWS V14.01,2013-08-11 03:07:00,
2013-08-10 20:12:00,88.6,39.7,29.75,WSW,252,0.0,3.0,18,0.00,,---,0.00,VWS V14.01,2013-08-11 03:12:00,
2013-08-10 20:17:00,88.5,39.6,29.75,West,262,0.0,3.0,18,0.00,,---,0.00,VWS V14.01,2013-08-11 03:17:00,
2013-08-10 20:23:00,88.3,39.5,29.75,West,260,1.0,3.0,18,0.00,,---,0.00,VWS V14.01,2013-08-11 03:23:00,
2013-08-10 20:28:00,88.1,39.3,29.75,West,273,1.0,3.0,18,0.00,,---,0.00,VWS V14.01,2013-08-11 03:28:00,
2013-08-10 20:30:00,88.0,39.2,29.76,West,266,2.0,5.0,18,0.00,,---,0.00,VWS V14.01,2013-08-11 03:30:00,
2013-08-10 20:33:00,88.0,39.2,29.76,West,266,2.0,5.0,18,0.00,,---,0.00,VWS V14.01,2013-08-11 03:33:00,
2013-08-10 20:38:00,87.7,39.0,29.76,West,271,2.0,7.0,18,0.00,,---,0.00,VWS V14.01,2013-08-11 03:38:00,
2013-08-10 20:44:00,87.6,37.5,29.76,WSW,252,4.0,7.0,17,0.00,,---,0.00,VWS V14.01,2013-08-11 03:44:00,
2013-08-10 20:49:00,87.4,37.3,29.77,West,271,3.0,7.0,17,0.00,,---,0.00,VWS V14.01,2013-08-11 03:49:00,
2013-08-10 20:54:00,87.1,37.0,29.77,WSW,241,2.0,7.0,17,0.00,,---,0.00,VWS V14.01,2013-08-11 03:54:00,
2013-08-10 20:59:00,86.7,36.7,29.77,WSW,256,2.0,7.0,17,0.00,,---,0.00,VWS V14.01,2013-08-11 03:59:00,
2013-08-10 21:00:00,86.5,36.6,29.78,WSW,257,1.0,7.0,17,0.00,,---,0.00,VWS V14.01,2013-08-11 04:00:00,
2013-08-10 21:01:00,86.6,35.1,29.77,West,277,3.0,7.0,16,0.00,,---,0.00,VWS V14.01,2013-08-11 04:01:00,
2013-08-10 21:02:00,86.6,36.6,29.78,WSW,258,1.0,7.0,17,0.00,,---,0.00,VWS V14.01,2013-08-11 04:02:00,
2013-08-10 21:07:00,86.3,36.4,29.78,WSW,247,1.0,3.0,17,0.00,,---,0.00,VWS V14.01,2013-08-11 04:07:00,
2013-08-10 21:12:00,86.1,34.7,29.78,West,267,1.0,3.0,16,0.00,,---,0.00,VWS V14.01,2013-08-11 04:12:00,
2013-08-10 21:17:00,86.0,34.6,29.79,WSW,240,0.0,3.0,16,0.00,,---,0.00,VWS V14.01,2013-08-11 04:17:00,
2013-08-10 21:22:00,85.7,35.9,29.79,WSW,240,0.0,3.0,17,0.00,,---,0.00,VWS V14.01,2013-08-11 04:22:00,
2013-08-10 21:27:00,85.2,35.5,29.79,WSW,240,0.0,3.0,17,0.00,,---,0.00,VWS V14.01,2013-08-11 04:27:00,
2013-08-10 21:30:00,84.6,36.5,29.79,WSW,240,0.0,3.0,18,0.00,,---,0.00,VWS V14.01,2013-08-11 04:30:00,
2013-08-10 21:32:00,84.7,36.5,29.79,WSW,240,0.0,3.0,18,0.00,,---,0.00,VWS V14.01,2013-08-11 04:32:00,
2013-08-10 21:38:00,84.5,36.4,29.80,WSW,240,0.0,1.0,18,0.00,,---,0.00,VWS V14.01,2013-08-11 04:38:00,
2013-08-10 21:43:00,84.6,35.0,29.80,WSW,240,0.0,1.0,17,0.00,,---,0.00,VWS V14.01,2013-08-11 04:43:00,
2013-08-10 21:48:00,84.7,35.1,29.80,SSE,152,0.0,1.0,17,0.00,,---,0.00,VWS V14.01,2013-08-11 04:48:00,
2013-08-10 21:53:00,84.7,35.1,29.80,SE,146,0.0,1.0,17,0.00,,---,0.00,VWS V14.01,2013-08-11 04:53:00,
2013-08-10 21:58:00,84.6,35.0,29.81,SE,146,0.0,1.0,17,0.00,,---,0.00,VWS V14.01,2013-08-11 04:58:00,
2013-08-10 22:00:00,84.5,35.0,29.81,SE,146,0.0,1.0,17,0.00,,---,0.00,VWS V14.01,2013-08-11 05:00:00,
2013-08-10 22:03:00,84.5,35.0,29.81,SE,146,0.0,1.0,17,0.00,,---,0.00,VWS V14.01,2013-08-11 05:03:00,
2013-08-10 22:08:00,84.2,34.7,29.81,SE,146,0.0,0.0,17,0.00,,---,0.00,VWS V14.01,2013-08-11 05:08:00,
2013-08-10 22:13:00,84.0,34.5,29.81,SSE,150,0.0,0.0,17,0.00,,---,0.00,VWS V14.01,2013-08-11 05:13:00,
2013-08-10 22:18:00,83.8,34.4,29.81,WSW,249,0.0,3.0,17,0.00,,---,0.00,VWS V14.01,2013-08-11 05:18:00,
2013-08-10 22:23:00,83.9,35.9,29.81,West,262,0.0,3.0,18,0.00,,---,0.00,VWS V14.01,2013-08-11 05:23:00,
2013-08-10 22:28:00,83.4,35.5,29.81,West,262,0.0,3.0,18,0.00,,---,0.00,VWS V14.01,2013-08-11 05:28:00,
2013-08-10 22:30:00,82.4,36.0,29.81,West,262,0.0,3.0,19,0.00,,---,0.00,VWS V14.01,2013-08-11 05:30:00,
2013-08-10 22:33:00,82.4,36.0,29.81,West,262,0.0,3.0,19,0.00,,---,0.00,VWS V14.01,2013-08-11 05:33:00,
2013-08-10 22:39:00,81.7,35.5,29.81,West,262,0.0,0.0,19,0.00,,---,0.00,VWS V14.01,2013-08-11 05:39:00,
2013-08-10 22:44:00,81.6,35.4,29.81,West,262,0.0,0.0,19,0.00,,---,0.00,VWS V14.01,2013-08-11 05:44:00,
2013-08-10 22:49:00,82.3,34.6,29.81,West,262,0.0,1.0,18,0.00,,---,0.00,VWS V14.01,2013-08-11 05:49:00,
2013-08-10 22:54:00,83.0,33.7,29.81,West,262,0.0,1.0,17,0.00,,---,0.00,VWS V14.01,2013-08-11 05:54:00,
2013-08-10 22:59:00,83.1,33.8,29.81,West,262,0.0,1.0,17,0.00,,---,0.00,VWS V14.01,2013-08-11 05:59:00,
2013-08-10 23:00:00,83.2,33.9,29.82,West,262,0.0,1.0,17,0.00,,---,0.00,VWS V14.01,2013-08-11 06:00:00,
2013-08-10 23:05:00,83.2,33.9,29.82,West,262,0.0,0.0,17,0.00,,---,0.00,VWS V14.01,2013-08-11 06:05:00,
2013-08-10 23:10:00,82.9,35.1,29.82,West,262,0.0,1.0,18,0.00,,---,0.00,VWS V14.01,2013-08-11 06:10:00,
2013-08-10 23:15:00,81.8,36.8,29.82,North,9,0.0,1.0,20,0.00,,---,0.00,VWS V14.01,2013-08-11 06:15:00,
2013-08-10 23:20:00,80.6,37.1,29.82,NNE,18,1.0,1.0,21,0.00,,---,0.00,VWS V14.01,2013-08-11 06:20:00,
2013-08-10 23:25:00,80.2,36.8,29.82,NNE,22,0.0,1.0,21,0.00,,---,0.00,VWS V14.01,2013-08-11 06:25:00,
2013-08-10 23:30:00,80.3,36.8,29.82,NNE,27,2.0,2.0,21,0.00,,---,0.00,VWS V14.01,2013-08-11 06:30:00,
2013-08-10 23:35:00,80.0,36.6,29.82,NNE,20,1.0,3.0,21,0.00,,---,0.00,VWS V14.01,2013-08-11 06:35:00,
2013-08-10 23:40:00,79.9,36.5,29.81,NNE,22,2.0,3.0,21,0.00,,---,0.00,VWS V14.01,2013-08-11 06:40:00,
2013-08-10 23:45:00,79.9,37.7,29.81,NE,46,1.0,3.0,22,0.00,,---,0.00,VWS V14.01,2013-08-11 06:45:00,
2013-08-10 23:51:00,79.7,37.5,29.81,NNE,26,2.0,3.0,22,0.00,,---,0.00,VWS V14.01,2013-08-11 06:51:00,
2013-08-10 23:56:00,79.6,37.5,29.81,NNE,27,2.0,3.0,22,0.00,,---,0.00,VWS V14.01,2013-08-11 06:56:00,